Wetterdaten: aktuell Sonntag, 01.08.2021 12:45
Datum Zeit Temp. I. Temp. A. Feuchte I. Feuchte A. Luftdruck Regen Wind Richtung Richtung Taupunkt Windchill Windben
01.08.2021 12:45 22,5 C 18,9 C 49 % 65 % 1011,6 hPa 0,0 l/m 0,0 km/h (0 Bft) W-NW 293 12,2 C 18,9 C 0,0 km/h (0 Bft)
01.08.2021 11:45 22,5 C 18,4 C 49 % 75 % 1011,7 hPa 0,0 l/m 0,0 km/h (0 Bft) W-SW 252 13,9 C 18,4 C 0,0 km/h (0 Bft)
01.08.2021 10:45 22,5 C 16,1 C 49 % 91 % 1012,0 hPa 0,0 l/m 0,0 km/h (0 Bft) SW 226 14,6 C 16,1 C 0,0 km/h (0 Bft)
01.08.2021 09:45 22,6 C 15,0 C 49 % 100 % 1011,1 hPa 0,0 l/m 0,0 km/h (0 Bft) W 278 15,0 C 15,0 C 0,0 km/h (0 Bft)
01.08.2021 08:45 22,6 C 14,1 C 50 % 100 % 1011,3 hPa 0,0 l/m 0,0 km/h (0 Bft) W-NW 282 14,1 C 14,1 C 0,0 km/h (0 Bft)
01.08.2021 07:45 22,6 C 14,0 C 50 % 100 % 1010,2 hPa 0,0 l/m 0,0 km/h (0 Bft) SW 234 14,0 C 14,0 C 0,0 km/h (0 Bft)
01.08.2021 06:45 22,6 C 14,2 C 50 % 99 % 1010,2 hPa 2,0 l/m 0,0 km/h (0 Bft) NW 304 14,0 C 14,2 C 0,0 km/h (0 Bft)
01.08.2021 05:45 22,6 C 14,6 C 50 % 98 % 1010,1 hPa 7,0 l/m 0,0 km/h (0 Bft) N-NW 340 14,3 C 14,6 C 0,0 km/h (0 Bft)
01.08.2021 04:45 22,6 C 14,5 C 49 % 93 % 1010,2 hPa 5,0 l/m 0,0 km/h (0 Bft) W-NW 286 13,4 C 14,5 C 0,0 km/h (0 Bft)
01.08.2021 03:45 22,7 C 14,9 C 49 % 86 % 1011,1 hPa 2,0 l/m 0,0 km/h (0 Bft) W-NW 298 12,6 C 14,9 C 0,0 km/h (0 Bft)
01.08.2021 02:45 22,7 C 15,1 C 49 % 80 % 1011,1 hPa 0,0 l/m 0,0 km/h (0 Bft) W-NW 298 11,7 C 15,1 C 0,0 km/h (0 Bft)
01.08.2021 01:45 22,7 C 14,8 C 50 % 78 % 1011,2 hPa 0,0 l/m 0,0 km/h (0 Bft) W-NW 302 11,0 C 14,8 C 0,0 km/h (0 Bft)
01.08.2021 00:45 22,7 C 14,6 C 50 % 76 % 1012,2 hPa 0,0 l/m 0,0 km/h (0 Bft) W-NW 291 10,4 C 14,6 C 0,0 km/h (0 Bft)
31.07.2021 23:45 22,7 C 15,7 C 50 % 69 % 1012,1 hPa 0,0 l/m 0,0 km/h (0 Bft) W 271 10,0 C 15,7 C 0,0 km/h (0 Bft)
31.07.2021 22:45 22,7 C 16,9 C 50 % 64 % 1011,9 hPa 0,0 l/m 0,0 km/h (0 Bft) W-NW 291 10,0 C 16,9 C 0,0 km/h (0 Bft)
31.07.2021 21:45 22,7 C 18,6 C 50 % 60 % 1012,7 hPa 0,0 l/m 0,0 km/h (0 Bft) SW 233 10,7 C 18,6 C 0,0 km/h (0 Bft)
31.07.2021 20:45 22,7 C 21,1 C 50 % 59 % 1011,3 hPa 0,0 l/m 0,0 km/h (0 Bft) SW 233 12,8 C 21,1 C 0,0 km/h (0 Bft)
31.07.2021 19:45 22,7 C 22,7 C 50 % 59 % 1011,1 hPa 0,0 l/m 6,5 km/h (2 Bft) SW 235 14,3 C 22,7 C 8,6 km/h (2 Bft)
31.07.2021 18:45 22,7 C 24,3 C 50 % 58 % 1009,9 hPa 0,0 l/m 5,8 km/h (2 Bft) SW 229 15,5 C 24,3 C 9,4 km/h (2 Bft)
31.07.2021 17:45 22,6 C 26,2 C 50 % 57 % 1010,7 hPa 0,0 l/m 3,6 km/h (1 Bft) S 185 17,0 C 26,2 C 0,0 km/h (0 Bft)
31.07.2021 16:45 22,6 C 28,6 C 50 % 56 % 1010,4 hPa 0,0 l/m 9,4 km/h (2 Bft) S-SW 209 18,9 C 28,2 C 8,6 km/h (2 Bft)
31.07.2021 15:45 22,6 C 28,5 C 50 % 56 % 1010,4 hPa 0,0 l/m 10,8 km/h (2 Bft) S-SW 210 18,8 C 27,9 C 12,2 km/h (2 Bft)
31.07.2021 14:45 22,5 C 28,5 C 50 % 56 % 1011,4 hPa 0,0 l/m 7,9 km/h (2 Bft) S-SO 158 18,8 C 28,3 C 8,6 km/h (2 Bft)
31.07.2021 13:45 22,5 C 24,8 C 50 % 58 % 1011,9 hPa 0,0 l/m 5,0 km/h (1 Bft) O-SO 115 16,0 C 24,8 C 7,9 km/h (2 Bft)
31.07.2021 13:00 22,5 C 25,8 C 50 % 58 % 1011,8 hPa 0,0 l/m 10,1 km/h (2 Bft) S 187 16,9 C 25,0 C 12,2 km/h (2 Bft)
_ Min-Zeit 13:00 07:17 22:15 14:22 18:44 - 15:32 - - 22:31 07:17 13:07
Minimum _ 22,5 C 14,0 C 49 % 56 % 1009,9 hPa - 0,0 km/h (0 Bft) - - 9,6 C 14,0 C 0,0 km/h (0 Bft)
_ Max-Zeit 18:33 16:03 13:00 06:15 23:32 04:49 16:07 - - 16:03 16:33 16:07
Maximum _ 22,7 C 29,3 C 50 % 100 % 1013,1 hPa 2,0 l/m 14,0 km/h
SW (3 Bft)
- - 19,6 C 29,3 C 17,6 km/h
SW (3 Bft)
Durchschnitt _ 22,6 C 19,0 C 50 % 75 % 1011,2 hPa #16,0 l/m 2,4 km/h (1 Bft) SW - 14,0 C 19,0 C 2,9 km/h (1 Bft)